Weather Service Report


255 
ASUS44 KJAN 272020
RWRMS 

MISSISSIPPI HOURLY WEATHER ROUNDUP
NATIONAL WEATHER SERVICE JACKSON MS
300 PM CDT SAT AUG 27 2016

NOTE: "FAIR: INDICATES FEW OR NO CLOUDS BELOW 12,000 FEET WITH NO
SIGNIFICANT WEATHER AND/OR OBSTRUCTIONS TO VISIBILITY.

MSZ001>002-007>008-010>013-018>021-025>028-034>036-272100-
NORTHWEST MISSISSIPPI
  
CITY           SKY/WX    TMP DP  RH WIND       PRES   REMARKS
CLARKSDALE     SUNNY     90  77  66 NW5       30.00F HX 102           
GREENWOOD      MOSUNNY   93  67  42 NW5       29.99F HX  96           
GREENVILLE     SUNNY     94  67  41 NE6       29.98F HX  97           
OLIVE BRANCH   MOSUNNY  N/A N/A N/A E12       30.02F                  
OXFORD         FAIR      82  68  61 NE10      30.05F                  
TUNICA         CLEAR     90  70  51 CALM      30.01F HX  95           
$$

MSZ003>006-009-014>017-022>024-029>033-037>039-272100-
NORTHEAST MISSISSIPPI
  
CITY           SKY/WX    TMP DP  RH WIND       PRES   REMARKS
COLUMBUS AFB   SUNNY     95  75  53 E8        29.99F HX 106           
CORINTH        MOCLDY    82  72  69 NE10      30.03F                  
GOLDN TRIANGLE PTSUNNY   93  66  40 E12       30.00F HX  96           
TUPELO         PTSUNNY   90  69  50 MISG      30.01F HX  94           
$$

MSZ040-058-272100-
CENTRAL MISSISSIPPI
  
CITY           SKY/WX    TMP DP  RH WIND       PRES   REMARKS
JACKSON INTL   MOSUNNY   92  69  47 E8        29.98F HX  97           
JACKSON HAWKNS MOSUNNY   91  68  46 E9        29.99F HX  95           
MERIDIAN KEY   SUNNY     95  68  41 VRB5      29.99F HX  99           
MERIDIAN NAS   MOSUNNY   95  64  35 E9        30.00F HX  97           
$$

MSZ059>079-272100-
SOUTH MISSISSIPPI
  
CITY           SKY/WX    TMP DP  RH WIND       PRES   REMARKS
BROOKHAVEN     FAIR     N/A N/A N/A NE5       29.98F                  
HATTIESBURG    MOSUNNY   91  69  48 E6        29.97F HX  96           
MCCOMB         PTSUNNY   90  69  50 E8        29.96F HX  94           
NATCHEZ        NOT AVBL                                               
PINE BELT      MOSUNNY  N/A N/A N/A NE7       29.98F                  
$$

MSZ080>082-272100-
COASTAL MISSISSIPPI
  
CITY           SKY/WX    TMP DP  RH WIND       PRES   REMARKS
BAY ST LOUIS   MOSUNNY   91  68  46 E8        29.94F HX  95           
BILOXI         TSTM      82  75  78 E18G30    29.97S                  
PASCAGOULA     RAIN      78  76  93 E10       29.98S FOG              
GULFPORT       CLOUDY    91  72  53 E9        29.94F HX  98           
$$

LAZ007>009-015>016-023>026-272100-
NORTHEAST LOUISIANA
  
CITY           SKY/WX    TMP DP  RH WIND       PRES   REMARKS
BASTROP        FAIR      92  70  49 E6        29.98F HX  97           
TALLULAH/VBURG MOSUNNY   93  71  48 NE7       29.96F HX 100           
$$
  

Return to Home page


Western Regional Climate Center, wrcc@dri.edu